DW8215 Weather Reports


Display with metric or nautical units.
time (UTC)temp
F
wind
direction
speed
MPH
gust
MPH
rain 1hr
in
rain 24hr
in
rain mn
in
humidity
%
barometer
mb
20260904061519 61 12 1.0 5.0 0.36 0.49 0.49 97 1014.7
20260904060015 62 355 0.0 2.0 0.45 0.47 0.47 96 1014.7
20260904054510 62 28 0.0 1.0 0.45 0.45 0.45 96 1014.7
20260904053014 63 142 0.0 5.0 0.38 0.38 0.38 95 1014.9
20260904051503 64 248 0.0 1.0 0.12 0.12 0.12 92 1015.0
20260904050059 64 349 0.0 0.0 0.02 0.02 0.02 89 1014.7
20260904044557 64 349 0.0 0.0 0.00 0.00 0.00 88 1014.8
20260904043102 64 349 0.0 0.0 0.00 0.00 0.00 88 1014.8
20260904041557 64 349 0.0 1.0 0.00 0.00 0.00 88 1014.9
20260904040105 64 349 0.0 1.0 0.00 0.00 0.00 87 1015.0
20260904034553 65 360 0.0 2.0 0.00 0.00 0.00 87 1014.9
20260904033053 65 355 0.0 0.0 0.00 0.00 0.00 88 1014.9
20260904031557 64 355 0.0 0.0 0.00 0.00 0.00 87 1014.7
20260904030053 64 355 0.0 0.0 0.00 0.00 0.00 88 1014.7
20260904024551 64 355 0.0 0.0 0.00 0.00 0.00 89 1014.9
20260904023050 64 355 0.0 0.0 0.00 0.00 0.00 89 1015.0
20260904021549 64 355 0.0 0.0 0.00 0.00 0.00 89 1015.2
20260904020050 64 355 0.0 2.0 0.00 0.00 0.00 89 1015.1
20260904014554 65 355 1.0 2.0 0.00 0.00 0.00 88 1015.1
20260904013048 65 11 0.0 3.0 0.00 0.00 0.00 89 1015.0
20260904011548 65 5 1.0 4.0 0.00 0.00 0.00 89 1014.9
20260904010046 65 5 2.0 4.0 0.00 0.00 0.00 89 1014.7
20260904004545 65 349 1.0 5.0 0.00 0.00 0.00 89 1014.4
20260904003046 66 5 3.0 5.0 0.00 0.00 0.00 89 1014.0
20260904001550 66 19 2.0 5.0 0.00 0.00 0.00 89 1013.7
20260904000055 67 11 0.0 3.0 0.00 0.00 0.00 87 1014.0
20260903234544 67 5 2.0 5.0 0.00 0.00 0.00 87 1014.3
20260903233043 68 5 1.0 6.0 0.00 0.00 0.00 86 1014.4
20260903231544 68 12 0.0 3.0 0.00 0.00 0.00 85 1014.3
20260903230046 69 36 2.0 6.0 0.00 0.00 0.00 84 1014.0
20260903224540 69 5 1.0 5.0 0.00 0.00 0.00 85 1013.9
20260903223039 69 5 2.0 5.0 0.00 0.00 0.00 83 1013.9
20260903221539 70 15 2.0 8.0 0.00 0.00 0.00 82 1013.7
20260903220038 69 360 3.0 5.0 0.00 0.00 0.00 83 1013.8
20260903214544 71 360 3.0 7.0 0.00 0.00 0.00 81 1013.8
20260903213045 72 360 3.0 6.0 0.00 0.00 0.00 80 1013.7
20260903211536 72 10 2.0 5.0 0.00 0.00 0.00 78 1013.6
20260903210038 73 17 2.0 6.0 0.00 0.00 0.00 76 1013.5
20260903204534 74 20 3.0 9.0 0.00 0.00 0.00 75 1013.4
20260903203032 74 38 4.0 8.0 0.00 0.00 0.00 72 1013.5
20260903201537 74 19 2.0 8.0 0.00 0.00 0.00 72 1013.5
20260903200030 75 22 2.0 5.0 0.00 0.00 0.00 77 1013.5
20260903194527 74 5 2.0 5.0 0.00 0.00 0.00 78 1013.7
20260903193024 74 355 3.0 9.0 0.00 0.00 0.00 75 1013.8
20260903191523 74 355 3.0 8.0 0.00 0.00 0.00 76 1013.8
20260903190021 73 360 4.0 8.0 0.00 0.00 0.00 81 1013.9
20260903184520 73 351 3.0 8.0 0.00 0.00 0.00 82 1014.1
20260903183019 73 338 4.0 8.0 0.00 0.00 0.00 80 1014.3
20260903181519 74 327 2.0 5.0 0.00 0.00 0.00 80 1014.4
20260903180023 73 23 1.0 6.0 0.00 0.00 0.00 82 1014.7
20260903174517 74 35 1.0 4.0 0.00 0.00 0.00 80 1014.8
20260903173017 73 355 2.0 4.0 0.00 0.00 0.00 82 1014.9
20260903171517 73 18 2.0 4.0 0.00 0.00 0.00 81 1015.0
20260903170015 73 343 2.0 4.0 0.00 0.00 0.00 80 1015.1
20260903164514 73 32 1.0 4.0 0.00 0.00 0.00 81 1015.0
20260903163015 73 23 2.0 3.0 0.00 0.00 0.00 80 1015.2
20260903161511 72 339 0.0 4.0 0.00 0.00 0.00 81 1015.2
20260903160009 72 5 0.0 2.0 0.00 0.00 0.00 81 1015.2
20260903154506 71 355 0.0 3.0 0.00 0.00 0.00 82 1015.2
20260903153005 71 355 0.0 3.0 0.00 0.00 0.00 82 1015.2
20260903151501 69 360 1.0 3.0 0.00 0.00 0.00 82 1015.2
20260903150107 68 360 0.0 4.0 0.00 0.00 0.00 87 1015.1
20260903144555 67 340 0.0 3.0 0.00 0.00 0.00 86 1015.3
20260903143101 65 141 0.0 0.0 0.00 0.00 0.00 92 1015.3
20260903141547 63 143 0.0 0.0 0.00 0.00 0.00 97 1015.5
20260903140043 61 143 0.0 0.0 0.00 0.00 0.00 98 1015.7
20260903134545 60 15 0.0 0.0 0.00 0.00 0.00 100 1015.5
20260903133039 59 15 0.0 0.0 0.00 0.00 0.00 100 1015.5
20260903131539 58 38 0.0 0.0 0.00 0.00 0.00 100 1015.6
20260903130039 57 141 0.0 0.0 0.00 0.00 0.00 100 1015.6
20260903124536 57 128 0.0 3.0 0.00 0.00 0.00 100 1015.3
20260903123033 56 355 0.0 0.0 0.00 0.00 0.00 100 1015.0
20260903121535 55 355 0.0 0.0 0.00 0.00 0.00 100 1015.0
20260903120038 54 355 0.0 0.0 0.00 0.00 0.00 99 1015.0
20260903114534 54 355 0.0 0.0 0.00 0.00 0.00 99 1015.0
20260903113031 54 355 0.0 0.0 0.00 0.00 0.00 99 1014.9
20260903111533 54 355 0.0 0.0 0.00 0.00 0.00 99 1014.6
20260903110027 54 355 0.0 0.0 0.00 0.00 0.00 99 1014.6
20260903104528 54 355 0.0 0.0 0.00 0.00 0.00 99 1014.6
20260903103026 54 355 0.0 0.0 0.00 0.00 0.00 99 1014.5
20260903101527 54 355 0.0 0.0 0.00 0.00 0.00 99 1014.5
20260903100023 54 355 0.0 0.0 0.00 0.00 0.00 98 1014.5
20260903094522 54 355 0.0 0.0 0.00 0.00 0.00 98 1014.5
20260903093121 55 355 0.0 0.0 0.00 0.00 0.00 99 1014.4
20260903091531 55 355 0.0 0.0 0.00 0.00 0.00 98 1014.4
20260903090024 55 355 0.0 0.0 0.00 0.00 0.00 98 1014.4
20260903084537 55 355 0.0 0.0 0.00 0.00 0.00 99 1014.5
20260903083016 55 355 0.0 0.0 0.00 0.00 0.00 98 1014.4
20260903081517 56 355 0.0 0.0 0.00 0.00 0.00 98 1014.5
20260903080014 56 355 0.0 0.0 0.00 0.00 0.00 98 1014.6
20260903074512 56 355 0.0 0.0 0.00 0.00 0.00 98 1014.5
20260903073013 56 355 0.0 0.0 0.00 0.00 0.00 98 1014.5
20260903071511 56 355 0.0 0.0 0.00 0.00 0.00 98 1014.4
20260903070018 56 355 0.0 0.0 0.00 0.00 0.00 98 1014.5
20260903064508 57 355 0.0 0.0 0.00 0.00 0.00 97 1014.5
20260903063007 57 355 0.0 0.0 0.00 0.00 0.00 98 1014.5